Вернуться в каталог

STARLINK-37824

АктивенСвязьVLEO
NORAD 69956·PAYLOAD·🇺🇸 United States

Запущен Jul 9, 2026 с Cape Canaveral Space Force Station

Loading…

Ближайшие Пролёты (ближайшие 24 часа)

TLE

СвежийSource: CelesTrak SupGP

Эпоха: Sep 15, 2026, 04:35 UTC

1 69956C 26157P   26258.19145833  .00073627  00000+0  21741-2 0  2582
2 69956  53.1595 358.2585 0001262  79.5169 213.2105 15.34371217    18

Отслеживайте STARLINK-37824 в реальном времени с AllMySat

Download on the App Store